DW2150 Weather Reports


time (UTC)temp
C
wind
direction
speed
KPH
gust
KPH
rain 1hr
cm
rain 24hr
cm
rain mn
cm
humidity
%
barometer
mb
20260903072120 28 162 0.0 0.0 0.00 0.00 0.00 90 1013.5
20260903071617 28 162 0.0 0.0 0.00 0.00 0.00 90 1013.5
20260903071115 28 162 0.0 0.0 0.00 0.00 0.00 90 1013.5
20260903070556 28 162 0.0 0.0 0.00 0.00 0.00 90 1013.5
20260903070034 28 162 0.0 0.0 0.00 0.00 0.00 90 1013.5
20260903065532 28 162 0.0 0.0 0.00 0.00 0.00 90 1013.9
20260903065028 28 162 0.0 0.0 0.00 0.00 0.00 90 1013.9
20260903064525 28 162 0.0 0.0 0.00 0.00 0.00 90 1013.9
20260903064022 28 162 0.0 1.6 0.00 0.00 0.00 90 1013.9
20260903063520 28 162 0.0 1.6 0.00 0.00 0.00 90 1013.9
20260903063016 28 162 0.0 1.6 0.00 0.00 0.00 90 1013.9
20260903062459 28 162 0.0 1.6 0.00 0.00 0.00 90 1013.9
20260903061936 28 40 0.0 0.0 0.00 0.00 0.00 90 1014.2
20260903061402 28 40 0.0 0.0 0.00 0.00 0.00 90 1014.2
20260903060859 28 40 0.0 1.6 0.00 0.00 0.00 90 1014.2
20260903060338 28 40 0.0 1.6 0.00 0.00 0.00 89 1014.2
20260903055804 28 40 0.0 1.6 0.00 0.00 0.00 89 1014.2
20260903055301 28 40 0.0 1.6 0.00 0.00 0.00 89 1014.6
20260903054758 28 57 0.0 0.0 0.00 0.00 0.00 89 1014.6
20260903054255 28 57 0.0 0.0 0.00 0.00 0.00 89 1014.6
20260903053752 28 57 0.0 0.0 0.00 0.00 0.00 89 1014.6
20260903053248 28 57 0.0 0.0 0.00 0.00 0.00 89 1014.6
20260903052745 28 57 0.0 0.0 0.00 0.00 0.00 89 1014.6
20260903051703 28 57 0.0 0.0 0.00 0.00 0.00 89 1014.6
20260903051200 28 57 0.0 0.0 0.00 0.00 0.00 89 1014.6
20260903050657 28 57 0.0 0.0 0.00 0.00 0.00 88 1014.6
20260903050154 28 57 0.0 0.0 0.00 0.00 0.00 88 1014.6
20260903045609 28 57 0.0 0.0 0.00 0.00 0.00 88 1014.6
20260903045106 28 57 0.0 0.0 0.00 0.00 0.00 88 1014.6
20260903044603 28 57 0.0 0.0 0.00 0.00 0.00 88 1014.9
20260903044100 28 57 0.0 0.0 0.00 0.00 0.00 88 1014.9
20260903043557 28 57 0.0 0.0 0.00 0.00 0.00 88 1014.6
20260903043055 28 57 0.0 0.0 0.00 0.00 0.00 88 1014.6
20260903042552 28 57 0.0 0.0 0.00 0.00 0.00 88 1014.6
20260903042031 28 57 0.0 0.0 0.00 0.00 0.00 88 1014.6
20260903041434 28 33 0.0 0.0 0.00 0.00 0.00 88 1014.6
20260903040844 28 33 0.0 0.0 0.00 0.00 0.00 88 1014.6
20260903040326 28 33 0.0 0.0 0.00 0.00 0.00 88 1014.9
20260903035804 28 33 0.0 1.6 0.00 0.00 0.00 88 1014.9
20260903035301 28 33 0.0 1.6 0.00 0.00 0.00 88 1014.6
20260903034739 28 33 0.0 1.6 0.00 0.00 0.00 88 1014.2
20260903034204 28 33 1.6 1.6 0.00 0.00 0.00 88 1014.2
20260903033702 28 29 0.0 0.0 0.00 0.00 0.00 88 1014.6
20260903033127 28 29 0.0 1.6 0.00 0.00 0.00 88 1014.6
20260903032623 28 29 0.0 1.6 0.00 0.00 0.00 87 1014.6
20260903032121 28 29 0.0 1.6 0.00 0.00 0.00 87 1014.6
20260903031559 28 29 1.6 1.6 0.00 0.00 0.00 87 1014.6
20260903031056 28 30 0.0 1.6 0.00 0.00 0.00 87 1014.2
20260903030537 28 30 0.0 1.6 0.00 0.00 0.00 87 1014.2
20260903030034 28 30 0.0 1.6 0.00 0.00 0.00 87 1014.2
20260903025501 28 30 0.0 1.6 0.00 0.00 0.00 87 1013.9
20260903024958 29 27 0.0 1.6 0.00 0.00 0.00 87 1013.9
20260903024454 29 27 0.0 1.6 0.00 0.00 0.00 87 1013.9
20260903023951 29 355 1.6 1.6 0.00 0.00 0.00 88 1013.9
20260903023447 29 355 1.6 1.6 0.00 0.00 0.00 88 1013.9
20260903022913 29 355 0.0 3.2 0.00 0.00 0.00 88 1013.9
20260903022410 29 355 0.0 3.2 0.00 0.00 0.00 87 1013.5
20260903021907 29 355 0.0 3.2 0.00 0.00 0.00 87 1013.5
20260903021346 29 8 1.6 3.2 0.00 0.00 0.00 87 1013.5
20260903020758 29 214 0.0 1.6 0.00 0.00 0.00 87 1013.5
20260903020217 29 214 0.0 1.6 0.00 0.00 0.00 87 1013.5
20260903015714 29 214 0.0 1.6 0.00 0.00 0.00 87 1013.5
20260903015138 29 189 0.0 0.0 0.00 0.00 0.00 87 1013.5
20260903014636 29 189 0.0 0.0 0.00 0.00 0.00 87 1013.5
20260903014133 29 189 0.0 1.6 0.00 0.00 0.00 87 1013.5
20260903013630 29 189 0.0 1.6 0.00 0.00 0.00 87 1013.5
20260903013127 29 189 0.0 3.2 0.00 0.00 0.00 87 1013.5
20260903012624 30 189 1.6 3.2 0.00 0.00 0.00 87 1013.5
20260903012121 30 189 0.0 4.8 0.00 0.00 0.00 87 1013.5
20260903011618 30 189 1.6 4.8 0.00 0.00 0.00 86 1013.2
20260903011039 30 144 3.2 4.8 0.00 0.00 0.00 86 1013.2
20260903010536 30 89 1.6 4.8 0.00 0.00 0.00 86 1013.2
20260903010014 30 244 0.0 3.2 0.00 0.00 0.00 86 1013.2
20260903005440 30 244 1.6 3.2 0.00 0.00 0.00 85 1013.2
20260903004905 30 244 0.0 3.2 0.00 0.00 0.00 85 1013.2
20260903004403 30 244 0.0 3.2 0.00 0.00 0.00 85 1013.2
20260903003859 30 144 1.6 1.6 0.00 0.00 0.00 84 1013.2
20260903003325 30 144 0.0 3.2 0.00 0.00 0.00 84 1013.2
20260903002821 30 144 0.0 3.2 0.00 0.00 0.00 84 1012.9
20260903002318 30 144 1.6 3.2 0.00 0.00 0.00 83 1012.9
20260903001815 30 144 1.6 3.2 0.00 0.00 0.00 83 1012.5
20260903001241 31 19 1.6 4.8 0.00 0.00 0.00 83 1012.5
20260903000722 31 23 1.6 4.8 0.00 0.00 0.00 82 1012.5
20260903000219 31 67 1.6 4.8 0.00 0.00 0.00 82 1012.5
20260902235657 31 110 1.6 4.8 0.00 0.00 0.00 81 1012.5
20260902235132 31 155 1.6 3.2 0.00 0.00 0.00 81 1012.5
20260902234558 31 155 1.6 4.8 0.00 0.00 0.00 80 1012.5
20260902234053 31 179 1.6 4.8 0.00 0.00 0.00 80 1012.9
20260902233500 31 179 1.6 4.8 0.00 0.00 0.00 79 1012.5
20260902232923 31 56 1.6 4.8 0.00 0.00 0.00 79 1012.5
20260902232421 32 88 1.6 4.8 0.00 0.00 0.00 78 1012.5
20260902231859 32 183 3.2 4.8 0.00 0.00 0.00 77 1012.5
20260902231355 32 86 1.6 4.8 0.00 0.00 0.00 76 1012.5
20260902230852 32 186 1.6 4.8 0.00 0.00 0.00 76 1012.5
20260902230330 32 115 1.6 4.8 0.00 0.00 0.00 76 1012.5
20260902225750 32 112 1.6 4.8 0.00 0.00 0.00 75 1012.5
20260902225113 32 222 1.6 4.8 0.00 0.00 0.00 76 1012.5
20260902224533 32 227 1.6 4.8 0.00 0.00 0.00 76 1012.5
20260902224030 33 204 1.6 4.8 0.00 0.00 0.00 75 1012.5
20260902223507 33 168 1.6 4.8 0.00 0.00 0.00 74 1012.5
20260902222957 33 128 3.2 4.8 0.00 0.00 0.00 74 1012.5
20260902222454 33 113 1.6 3.2 0.00 0.00 0.00 73 1012.5
20260902221920 33 113 1.6 4.8 0.00 0.00 0.00 73 1012.5
20260902221358 33 33 1.6 4.8 0.00 0.00 0.00 74 1012.5
20260902220855 33 167 1.6 4.8 0.00 0.00 0.00 74 1012.5
20260902220352 33 180 1.6 4.8 0.00 0.00 0.00 74 1012.5
20260902215849 33 152 1.6 4.8 0.00 0.00 0.00 74 1012.5
20260902215346 33 140 1.6 4.8 0.00 0.00 0.00 75 1012.5
20260902214843 33 153 1.6 6.4 0.00 0.00 0.00 75 1012.5
20260902214340 33 132 1.6 6.4 0.00 0.00 0.00 76 1012.5
20260902213837 33 140 1.6 6.4 0.00 0.00 0.00 75 1012.5
20260902213334 33 119 1.6 6.4 0.00 0.00 0.00 75 1012.5
20260902212831 33 301 1.6 4.8 0.00 0.00 0.00 76 1012.5
20260902212327 33 300 1.6 4.8 0.00 0.00 0.00 76 1012.5
20260902211825 33 257 1.6 6.4 0.00 0.00 0.00 76 1012.5
20260902211322 33 169 1.6 6.4 0.00 0.00 0.00 75 1012.9
20260902210800 33 219 1.6 6.4 0.00 0.00 0.00 75 1012.9
20260902210219 33 191 1.6 6.4 0.00 0.00 0.00 75 1012.9
20260902205716 33 189 1.6 6.4 0.00 0.00 0.00 74 1012.9
20260902205213 34 119 3.2 6.4 0.00 0.00 0.00 74 1012.9
20260902204710 34 168 1.6 4.8 0.00 0.00 0.00 74 1012.9
20260902204207 35 291 3.2 6.4 0.00 0.00 0.00 73 1012.9
20260902203704 35 169 1.6 6.4 0.00 0.00 0.00 73 1012.9
20260902203201 35 161 3.2 6.4 0.00 0.00 0.00 73 1012.9
20260902202658 35 40 1.6 4.8 0.00 0.00 0.00 72 1012.9
20260902202136 36 358 3.2 4.8 0.00 0.00 0.00 70 1012.9
20260902201633 36 319 0.0 8.0 0.00 0.00 0.00 68 1013.2
20260902201130 35 314 1.6 8.0 0.00 0.00 0.00 66 1013.2
20260902200627 35 279 1.6 8.0 0.00 0.00 0.00 69 1013.2
20260902200124 35 273 3.2 8.0 0.00 0.00 0.00 71 1013.5
20260902195621 35 296 1.6 6.4 0.00 0.00 0.00 71 1013.5
20260902195118 35 279 1.6 3.2 0.00 0.00 0.00 72 1013.5
20260902194615 35 258 1.6 3.2 0.00 0.00 0.00 72 1013.5
20260902194111 35 254 1.6 4.8 0.00 0.00 0.00 72 1013.5
20260902193538 35 254 1.6 4.8 0.00 0.00 0.00 71 1013.5
20260902193035 35 254 1.6 6.4 0.00 0.00 0.00 71 1013.9
20260902192531 35 254 1.6 6.4 0.00 0.00 0.00 71 1013.9
20260902192010 35 253 3.2 9.7 0.00 0.00 0.00 70 1013.9
20260902191448 35 252 1.6 9.7 0.00 0.00 0.00 69 1013.9
20260902190926 35 257 1.6 9.7 0.00 0.00 0.00 68 1013.9
20260902190424 36 246 3.2 8.0 0.00 0.00 0.00 68 1013.9
20260902185902 36 267 1.6 6.4 0.00 0.03 0.00 67 1013.9
20260902185400 36 157 0.0 14.5 0.00 0.03 0.00 67 1013.9
20260902184857 36 261 3.2 14.5 0.00 0.03 0.00 66 1013.9
20260902184316 36 257 1.6 14.5 0.00 0.03 0.00 68 1013.9
20260902183811 36 245 4.8 14.5 0.00 0.03 0.00 68 1014.2
20260902183308 36 253 3.2 12.9 0.00 0.03 0.00 69 1014.2
20260902182805 36 245 4.8 12.9 0.00 0.03 0.00 70 1014.2
20260902182305 35 253 4.8 12.9 0.00 0.03 0.00 69 1014.2
20260902181758 35 248 6.4 12.9 0.00 0.03 0.00 69 1014.2
20260902181245 35 248 1.6 12.9 0.00 0.03 0.00 72 1014.6
20260902180729 35 250 4.8 12.9 0.00 0.03 0.00 72 1014.6
20260902180155 34 152 3.2 16.1 0.00 0.03 0.00 74 1014.6
20260902175610 34 258 3.2 16.1 0.00 0.03 0.00 73 1014.9
20260902175107 34 253 3.2 16.1 0.00 0.03 0.00 74 1014.9
20260902174533 34 239 6.4 16.1 0.00 0.03 0.00 72 1014.9
20260902174030 34 281 1.6 12.9 0.00 0.03 0.00 74 1015.2
20260902173527 34 249 4.8 11.3 0.00 0.03 0.00 73 1015.2
20260902173023 34 247 3.2 11.3 0.00 0.03 0.00 75 1015.2
20260902172521 33 265 3.2 9.7 0.00 0.03 0.00 76 1015.2
20260902171956 33 249 4.8 9.7 0.00 0.03 0.00 77 1015.2
20260902171434 33 266 3.2 22.5 0.00 0.03 0.00 76 1015.2
20260902170917 33 349 3.2 22.5 0.00 0.03 0.00 76 1015.2
20260902170358 33 94 3.2 22.5 0.00 0.03 0.00 79 1015.6
20260902165824 32 250 4.8 17.7 0.00 0.03 0.00 80 1015.6
20260902165321 32 250 1.6 17.7 0.00 0.03 0.00 81 1015.6
20260902164818 32 243 6.4 17.7 0.00 0.03 0.00 80 1015.6
20260902164243 32 249 6.4 17.7 0.00 0.03 0.00 81 1015.9
20260902163740 32 253 4.8 12.9 0.00 0.03 0.00 82 1015.9
20260902163237 32 262 3.2 12.9 0.00 0.03 0.00 82 1015.9
20260902162715 31 261 4.8 12.9 0.00 0.03 0.00 83 1015.9
20260902162212 32 16 3.2 12.9 0.00 0.03 0.00 82 1015.9
20260902161709 32 263 3.2 16.1 0.00 0.03 0.00 82 1015.9
20260902161205 32 251 4.8 16.1 0.00 0.03 0.00 82 1015.9
20260902160701 32 245 8.0 16.1 0.00 0.03 0.00 82 1015.9
20260902160139 31 260 4.8 8.0 0.00 0.03 0.00 84 1015.9
20260902155617 31 269 1.6 9.7 0.00 0.03 0.00 86 1015.9
20260902155110 31 271 3.2 9.7 0.00 0.03 0.00 86 1015.9
20260902154533 30 263 3.2 9.7 0.00 0.03 0.00 87 1015.9
20260902153959 30 251 4.8 9.7 0.00 0.03 0.00 87 1015.9
20260902153457 30 237 3.2 8.0 0.00 0.03 0.00 88 1015.6
20260902152954 29 268 3.2 9.7 0.00 0.03 0.00 88 1015.6
20260902152419 29 244 3.2 9.7 0.00 0.03 0.00 89 1015.6
20260902151916 29 234 1.6 9.7 0.00 0.03 0.00 89 1015.6
20260902151343 28 256 3.2 9.7 0.00 0.03 0.00 90 1015.6
20260902150839 28 242 3.2 9.7 0.00 0.03 0.00 90 1015.6
20260902150335 28 229 1.6 8.0 0.00 0.03 0.00 90 1015.6
20260902145832 28 267 1.6 8.0 0.00 0.03 0.00 90 1015.6
20260902145330 27 237 1.6 4.8 0.00 0.03 0.00 90 1015.6
20260902144826 27 250 3.2 4.8 0.00 0.03 0.00 91 1015.6
20260902144323 27 253 0.0 4.8 0.00 0.03 0.00 91 1015.6
20260902143820 27 249 3.2 4.8 0.00 0.03 0.00 91 1015.6
20260902143317 27 238 1.6 3.2 0.00 0.03 0.00 91 1015.6
20260902142814 27 155 0.0 0.0 0.00 0.03 0.00 92 1015.6
20260902142311 26 155 0.0 0.0 0.00 0.03 0.00 92 1015.6
20260902141808 26 155 0.0 0.0 0.00 0.03 0.00 92 1015.6
20260902141228 26 155 0.0 0.0 0.00 0.03 0.00 92 1015.6
20260902140725 26 155 0.0 0.0 0.00 0.03 0.00 92 1015.6
20260902140202 26 155 0.0 0.0 0.00 0.03 0.00 92 1015.6
20260902135700 26 155 0.0 0.0 0.00 0.03 0.00 92 1015.6
20260902135157 26 155 0.0 0.0 0.00 0.03 0.00 92 1015.6
20260902134654 26 155 0.0 0.0 0.00 0.03 0.00 92 1015.6
20260902134151 25 155 0.0 0.0 0.00 0.03 0.00 92 1015.6
20260902133648 25 155 0.0 0.0 0.00 0.03 0.00 92 1015.2
20260902133145 25 155 0.0 0.0 0.00 0.03 0.00 92 1015.6
20260902132611 25 155 0.0 0.0 0.00 0.03 0.00 92 1015.6
20260902132050 25 155 0.0 0.0 0.00 0.03 0.00 92 1015.2
20260902131547 25 155 0.0 0.0 0.00 0.03 0.00 92 1015.2
20260902131044 25 155 0.0 0.0 0.00 0.03 0.00 92 1015.2
20260902130540 25 155 0.0 0.0 0.00 0.03 0.00 92 1014.9
20260902130036 25 155 0.0 0.0 0.00 0.03 0.00 92 1015.2
20260902125533 25 155 0.0 0.0 0.00 0.03 0.00 92 1015.2
20260902125030 25 155 0.0 0.0 0.00 0.03 0.00 92 1014.9
20260902124527 25 155 0.0 0.0 0.00 0.03 0.00 91 1014.9
20260902124024 25 155 0.0 0.0 0.00 0.03 0.00 91 1014.9
20260902123521 25 155 0.0 0.0 0.00 0.03 0.00 91 1014.9
20260902123018 25 155 0.0 0.0 0.00 0.03 0.00 91 1014.6
20260902122010 25 155 0.0 0.0 0.00 0.03 0.00 91 1014.2
20260902121436 25 155 0.0 0.0 0.00 0.03 0.00 91 1014.2
20260902120933 25 155 0.0 3.2 0.00 0.03 0.00 92 1014.2
20260902120431 25 155 0.0 4.8 0.00 0.03 0.00 92 1014.2
20260902115926 26 155 0.0 8.0 0.00 0.03 0.00 91 1014.6
20260902115352 26 155 0.0 8.0 0.00 0.03 0.00 92 1014.6
20260902114849 26 157 3.2 8.0 0.00 0.03 0.00 92 1014.6
20260902114347 26 181 1.6 8.0 0.00 0.03 0.00 94 1014.6
20260902113844 26 292 0.0 0.0 0.00 0.03 0.00 93 1014.2
20260902113341 26 292 0.0 0.0 0.00 0.03 0.00 93 1013.9
20260902112837 26 292 0.0 0.0 0.00 0.03 0.00 93 1014.2
20260902112334 26 292 0.0 0.0 0.00 0.03 0.00 93 1014.2
20260902111829 26 292 0.0 0.0 0.00 0.03 0.00 93 1013.9
20260902111326 26 292 0.0 0.0 0.00 0.03 0.00 93 1013.9
20260902110824 26 292 0.0 0.0 0.00 0.03 0.00 93 1013.9
20260902110302 26 292 0.0 0.0 0.00 0.03 0.00 93 1013.9
20260902105744 26 292 0.0 0.0 0.00 0.03 0.00 93 1013.9
20260902105209 26 292 0.0 0.0 0.00 0.03 0.00 93 1013.9
20260902104651 26 292 0.0 0.0 0.00 0.03 0.00 93 1014.2
20260902104116 26 292 0.0 0.0 0.00 0.03 0.00 93 1014.2
20260902103614 26 292 0.0 3.2 0.00 0.03 0.00 93 1014.2
20260902103111 26 292 0.0 3.2 0.00 0.03 0.00 93 1013.9
20260902102549 26 292 0.0 3.2 0.00 0.03 0.00 93 1013.9
20260902102047 26 292 0.0 3.2 0.00 0.03 0.00 93 1013.9
20260902101513 26 302 0.0 1.6 0.00 0.03 0.00 93 1013.9
20260902101010 26 302 1.6 1.6 0.00 0.03 0.00 93 1013.9
20260902100507 26 302 0.0 0.0 0.00 0.03 0.00 92 1013.9
20260902100004 26 302 0.0 0.0 0.00 0.03 0.00 92 1013.9
20260902095501 26 302 0.0 0.0 0.00 0.03 0.00 92 1013.5
20260902094959 26 303 0.0 0.0 0.00 0.03 0.00 92 1013.9
20260902094456 26 303 0.0 0.0 0.00 0.03 0.00 92 1013.9
20260902093952 26 299 0.0 0.0 0.00 0.03 0.00 92 1013.9
20260902093430 26 299 0.0 0.0 0.00 0.03 0.00 92 1013.9
20260902092927 26 299 0.0 0.0 0.00 0.03 0.00 92 1013.9
20260902092353 26 299 0.0 0.0 0.00 0.03 0.00 92 1013.5
20260902091850 26 299 0.0 0.0 0.00 0.03 0.00 92 1013.9
20260902091347 26 299 0.0 0.0 0.00 0.03 0.00 92 1013.5
20260902090844 26 187 0.0 0.0 0.00 0.03 0.00 92 1013.5
20260902090303 26 187 0.0 0.0 0.00 0.03 0.00 92 1013.5
20260902085710 26 187 0.0 0.0 0.00 0.03 0.00 92 1013.5
20260902085207 26 300 0.0 0.0 0.00 0.03 0.00 92 1013.5
20260902084704 26 300 0.0 0.0 0.00 0.03 0.00 92 1013.5
20260902084201 26 301 0.0 0.0 0.00 0.03 0.00 92 1013.5
20260902083658 26 301 0.0 0.0 0.00 0.03 0.00 92 1013.5
20260902083136 26 301 0.0 0.0 0.00 0.03 0.00 92 1013.9
20260902082633 26 301 0.0 0.0 0.00 0.03 0.00 92 1013.9
20260902082110 26 214 0.0 0.0 0.00 0.03 0.00 92 1013.5
20260902081607 26 213 0.0 0.0 0.00 0.03 0.00 92 1013.5
20260902081103 26 299 0.0 0.0 0.00 0.03 0.00 92 1013.9
20260902080543 26 298 0.0 0.0 0.00 0.03 0.00 92 1013.9
20260902075938 26 299 0.0 0.0 0.00 0.03 0.00 92 1013.9
20260902075435 26 329 0.0 1.6 0.00 0.03 0.00 92 1013.9
20260902074932 26 339 0.0 1.6 0.00 0.03 0.00 92 1013.9
20260902074429 26 338 0.0 1.6 0.00 0.03 0.00 92 1013.9
20260902073926 26 338 1.6 1.6 0.00 0.03 0.00 92 1013.9
20260902073423 26 342 1.6 1.6 0.00 0.03 0.00 92 1013.9
20260902072849 26 342 0.0 1.6 0.00 0.03 0.00 92 1013.9